Location: *
(2.5500°S, 65.9667°W)
Time: 09:44:24
(UTC+00:00)

Cosmos 2004 Rocket - Visible Passes

Search period start: 17 August 2022 00:00
Search period end: 27 August 2022 00:00
Orbit: 960 x 1009 km, 83.0° (Epoch: 16 August)

Date Brightness Start Highest point End Pass type
(mag) Time Alt. Az. Time Alt. Az. Time Alt. Az.
17 Aug 5.5 07:51:36 10° NNE 07:57:30 44° E 08:03:28 10° SSE visible
17 Aug 5.9 09:39:35 10° WNW 09:42:48 14° W 09:43:10 14° W visible
18 Aug 5.3 08:19:15 10° N 08:33:57 - S 08:23:03 40° N visible
19 Aug 6.4 08:47:57 10° NNW 08:48:52 14° NW 08:48:52 14° NW visible
